Regional Weather Roundup
Issued by NWS Grand Forks, ND

Home | Current Version | Previous Version | Graphics & Text | Print | Product List | Glossary On
Versions: 1 2 3 4 5 6 7 8 9 10 11 12 13 14 15 16 17 18 19 20 21 22 23 24 25 26 27 28 29 30 31 32 33 34 35 36 37 38 39 40 41 42 43 44 45 46 47 48 49 50
975
ASUS43 KFGF 300031
RWRFGF
PRAIRIE TO PINES  WEATHER ROUNDUP
NATIONAL WEATHER SERVICE EASTERN NORTH DAKOTA/GRAND FORKS ND
700 PM CDT WED MAR 29 2017

 **SATELLITE DATA USED TO AUGMENT SKY COVER AT AUTOMATED STATIONS**
 *****  WEATHER ACROSS EASTERN NORTH DAKOTA  *****

CITY           SKY/WX    TMP DP  RH WIND       PRES   REMARKS
GRAND FORKS    FAIR      57  43  59 S13       30.01S
6HR MIN TEMP:  54; 6HR MAX TEMP:  62;

GRAND FRKS AFB FAIR      57  41  55 S15       30.00S
DEVILS LAKE    CLOUDY    55  39  54 S7        29.95F
6HR MIN TEMP:  52; 6HR MAX TEMP:  58;

FARGO          FAIR      57  36  45 S18       30.05R
WAHPETON ARPT  FAIR      52  34  50 SE16      30.08S
$$

 ***** WEATHER ACROSS CENTRAL AND WESTERN NORTH DAKOTA  *****

CITY           SKY/WX    TMP DP  RH WIND       PRES   REMARKS
BISMARCK       CLOUDY    62  38  40 S14       29.93F
6HR MIN TEMP:  59; 6HR MAX TEMP:  65;

MINOT          PTSUNNY   53  46  77 N3        29.87F
6HR MIN TEMP:  51; 6HR MAX TEMP:  64; 6HR PCP: TRACE;

JAMESTOWN      FAIR      58  32  37 S12       29.97F
6HR MIN TEMP:  58; 6HR MAX TEMP:  63;

MINOT AFB      FAIR      51  47  87 E3        29.86F
GARRISON         N/A     53  39  59 S6        29.87F
WILLISTON      FAIR      61  30  31 W9        29.86F
6HR MIN TEMP:  55; 6HR MAX TEMP:  63;

DICKINSON      FAIR      60  25  26 SW13      29.86F
6HR MIN TEMP:  53; 6HR MAX TEMP:  63;

HETTINGER      CLOUDY    58  34  40 S12       29.91F
6HR MIN TEMP:  53; 6HR MAX TEMP:  63;

$$

 *****  OTHER AIRPORT OBSERVATIONS IN OUR AREA  *****

CITY           SKY/WX    TMP DP  RH WIND       PRES   REMARKS
WALHALLA       NOT AVBL
GRAFTON AIRPOR MOCLDY    54  45  71 S13       29.99F
VALLEY CITY AR FAIR      57  36  44 SE16G22   30.01F
CANDO          NOT AVBL
CAVALIER APRT  FAIR      54  45  71 SE10      29.95F
GWINNER        CLEAR     54  36  50 MISG      30.04R
SHEYENNE NWR     N/A     56  31  39 S15       29.95S
ROLLA          LGT RAIN  43  43 100 W7        29.92F
 ***** THE ABOVE OBSERVATIONS ARE NON NWS ARE NOT QUALITY
       CONTROLLED AND MAY MIS-REPORT RAIN FOR SNOW...
$$

  *****  WEATHER ACROSS NORTHERN MINNESOTA  *****

CITY           SKY/WX    TMP DP  RH WIND       PRES   REMARKS
FLAG ISLAND    FAIR      39  30  70 S7        30.03F
WARROAD        FAIR      55  37  50 S5        30.04S
ROSEAU         FAIR      54  39  58 S8        30.03S
HALLOCK        FAIR      54  48  82 S12       29.99F
THF RVR FALLS  FAIR      55  39  54 S12       30.05S
6HR MIN TEMP:  52; 6HR MAX TEMP:  60;

BAUDETTE       FAIR      55  30  38 S9        30.06F
6HR MIN TEMP:  51; 6HR MAX TEMP:  60;

WASKISH        FAIR      52  34  50 S7        30.08F
CROOKSTON      FAIR      55  41  58 S14       30.04S
STEPHEN NDAWN    N/A     55  45  67 S10         N/A
GREENBUSH NDAW   N/A     54  39  58 S8          N/A
$$
  *****  WEATHER ACROSS CENTRAL AND WEST MINNESOTA  *****

CITY           SKY/WX    TMP DP  RH WIND       PRES   REMARKS
FOSSTON        FAIR      52  36  54 S9        30.07R
BEMIDJI        FAIR      50  32  50 SE9       30.08F
PARK RAPIDS    FAIR      53  28  38 S10       30.09F
6HR MIN TEMP:  47; 6HR MAX TEMP:  57;

ELBOW LAKE     FAIR      47  37  67 S14       30.11S
6HR MIN TEMP:  49; 6HR MAX TEMP:  57;

WADENA         FAIR      48  36  61 S9        30.11S
DETROIT LAKES  FAIR      52  32  46 S9        30.09R
MOORHEAD       FAIR      54  37  54 S15       30.07R
FERGUS FALLS   FAIR      50  36  57 S14       30.12S
MORRIS MN      FAIR      46  37  71 S16       30.11S
STAPLES        FAIR      48  30  49 SE7       30.12S
$$
  *****  WEATHER ELSEWHERE ACROSS MINNESOTA  *****

CITY           SKY/WX    TMP DP  RH WIND       PRES   REMARKS
DULUTH         FAIR      34  28  79 E9        30.20F
6HR MIN TEMP:  34; 6HR MAX TEMP:  39;

INTRNTL FALLS  FAIR      50  30  46 SE10      30.12S
6HR MIN TEMP:  47; 6HR MAX TEMP:  54;

ELY            FAIR      36  23  60 SE7       30.20S
CLOQUET        FAIR      34  28  80 E10G17    30.19F
WHEATON        FAIR      48  36  61 SE16      30.11S
BRAINERD       FAIR      48  31  51 SE6       30.14F
6HR MIN TEMP:  44; 6HR MAX TEMP:  50;

HIBBING        FAIR      39  28  64 SE9       30.17F
6HR MIN TEMP:  39; 6HR MAX TEMP:  45;

ALEXANDRIA     FAIR      48  35  60 S13       30.13R
6HR MIN TEMP:  48; 6HR MAX TEMP:  55;

SAINT CLOUD    MOCLDY    48  36  63 S6        30.15S
6HR MIN TEMP:  48; 6HR MAX TEMP:  52;

MINNEAPOLIS    LGT RAIN  45  38  76 S9        30.16F
6HR MIN TEMP:  45; 6HR MAX TEMP:  50; 6HR PCP: TRACE;

$$

  *****  WEATHER ACROSS SOUTH DAKOTA  *****

CITY           SKY/WX    TMP DP  RH WIND       PRES   REMARKS
SIOUX FALLS    LGT RAIN  41  40  96 E17G26    30.04S
6HR MIN TEMP:  41; 6HR MAX TEMP:  51; 6HR PCP:  0.03;

BROOKINGS      CLOUDY    43  36  75 E14       30.05S
WATERTOWN      MOCLDY    45  35  68 SE9G21    30.08R
6HR MIN TEMP:  45; 6HR MAX TEMP:  56;

HURON          FAIR      50  36  58 E12       30.05R
6HR MIN TEMP:  50; 6HR MAX TEMP:  57;

SISSETON         N/A     52  37  56 S17       30.07R
ABERDEEN       FAIR      55  32  41 SE14      30.03S
6HR MIN TEMP:  55; 6HR MAX TEMP:  62;

MITCHELL       CLOUDY    47  37  68 E16       30.06R
PIERRE         FAIR      53  34  48 SE20      29.99R
6HR MIN TEMP:  53; 6HR MAX TEMP:  62;

MOBRIDGE       FAIR      61  27  27 S7        29.94F
RAPID CITY     FAIR      56  37  49 E5        29.95F
6HR MIN TEMP:  50; 6HR MAX TEMP:  57;

$$

  *****  SOME WEATHER IN NEARBY STATES *****

CITY           SKY/WX    TMP DP  RH WIND       PRES   REMARKS
GLASGOW MT     FAIR      58  26  29 W8        29.83F
6HR MIN TEMP:  56; 6HR MAX TEMP:  61;

GREAT FALLS MT FAIR      56  34  43 SW29G39   29.79F
6HR MIN TEMP:  43; 6HR MAX TEMP:  58; 6HR PCP: TRACE;

CHEYENNE WY    FAIR      52  23  32 NW20G28   29.97F
6HR MIN TEMP:  45; 6HR MAX TEMP:  53;

SCOTTSBLUFF NE FAIR      57  37  47 NE13      29.94S
6HR MIN TEMP:  49; 6HR MAX TEMP:  60;

OMAHA NE       LGT RAIN  43  38  82 NE25G36   29.83F FOG
6HR MIN TEMP:  43; 6HR MAX TEMP:  44; 6HR PCP:  0.57;

DES MOINES IA  DRIZZLE   44  42  93 E17G25    29.87F FOG
6HR MIN TEMP:  44; 6HR MAX TEMP:  46; 6HR PCP:  0.44;

DAVENPORT IA   CLOUDY    44  40  85 E21G28    29.99R
6HR MIN TEMP:  44; 6HR MAX TEMP:  48; 6HR PCP:  0.22;

CHICAGO IL     LGT RAIN  46  36  68 NE10G21   30.11R
6HR MIN TEMP:  44; 6HR MAX TEMP:  49; 6HR PCP:  0.01;

EAU CLAIRE WI  CLOUDY    47  35  63 S10       30.18R
6HR MIN TEMP:  47; 6HR MAX TEMP:  50;

LA CROSSE WI   LGT RAIN  44  40  85 E9        30.17R
6HR MIN TEMP:  45; 6HR MAX TEMP:  48; 6HR PCP: TRACE;

$$

  *****  SOME NATIONAL WEATHER *****

CITY           SKY/WX    TMP DP  RH WIND       PRES   REMARKS
LA GUARDIA NY  FAIR      53  25  33 N13       30.14R
6HR MIN TEMP:  53; 6HR MAX TEMP:  59;

RALEIGH NC     FAIR      66  52  60 E5        30.07S
6HR MIN TEMP:  66; 6HR MAX TEMP:  73;

ATLANTA GA     FAIR      80  56  43 SE5       29.97S
6HR MIN TEMP:  78; 6HR MAX TEMP:  85;

NEW ORLEANS LA CLOUDY    76  67  73 SE16      29.89F
6HR MIN TEMP:  76; 6HR MAX TEMP:  83;

OKLAHOMA CITY  MOCLDY    54  42  64 NW20G31   29.77R
6HR MIN TEMP:  54; 6HR MAX TEMP:  62; 6HR PCP: TRACE;

ALBUQUERQUE NM PTSUNNY   61  27  27 NW9       29.99R
6HR MIN TEMP:  55; 6HR MAX TEMP:  62;

SALT LAKE CITY PTSUNNY   56  31  38 N8        30.12F
6HR MIN TEMP:  49; 6HR MAX TEMP:  57;

LOS ANGELES CA FAIR      71  48  43 W14       30.00F
6HR MIN TEMP:  69; 6HR M



USA.gov is the U.S. government's official web portal to all federal, state and local government web resources and services.